Wind_Speed
44 44 43 43 43 43 43 44 44 45 45 46 47 47 48 49 49 50 51 51 52 53 54 54 54 55 56 57 58 57 57 57 57 57 58 60 61 61 61 62 63 65 67 69 70 70 72 73 74 75 76 77 77 77 77 78 78 79 80 80 80 80 80 79 80 78 74 74 77 79 81 83 83 85 87 87 86 87 89 92 94 96 99 101 103
45 45 45 45 45 45 46 46 46 47 47 48 49 49 50 51 51 52 52 53 54 55 55 55 56 57 58 58 57 57 56 57 57 58 60 61 61 61 62 64 66 68 69 70 71 72 73 75 76 76 77 77 77 77 77 78 79 79 79 79 78 78 80 80 81 82 79 77 78 80 82 85 86 88 90 91 91 91 93 95 97 98 101 104 107
46 46 46 46 46 47 47 48 48 49 49 50 50 51 51 52 52 53 54 54 55 56 56 56 57 57 58 57 57 56 56 57 58 60 61 61 61 62 64 66 68 70 71 71 73 74 75 76 76 76 76 76 77 77 77 78 79 79 78 77 78 78 80 82 83 85 84 82 81 83 84 85 87 89 92 94 96 97 98 99 100 102 103 106 108
46 46 46 47 47 48 49 49 50 50 50 51 51 52 52 53 53 54 55 55 56 56 56 57 57 57 57 57 56 57 57 59 60 61 61 62 63 65 67 69 70 71 72 73 74 75 76 76 76 76 76 76 77 77 78 78 78 77 77 77 78 80 81 84 86 87 88 86 85 86 87 88 89 92 95 97 99 100 101 103 105 106 108 109 110
46 46 47 48 48 49 49 50 50 51 51 51 52 52 53 53 54 54 55 56 56 57 57 57 57 57 57 57 57 58 59 60 60 61 62 64 65 67 69 70 71 72 73 74 75 76 76 76 75 76 76 76 77 77 78 78 77 76 77 78 79 81 83 86 88 89 90 90 89 89 89 91 93 95 98 101 102 103 105 106 107 109 110 110 110
46 47 47 48 49 49 50 50 50 51 51 51 52 52 53 54 54 55 56 56 57 57 57 57 57 57 57 57 58 59 60 61 61 63 64 66 67 69 70 71 72 74 74 75 76 76 76 76 75 76 76 76 77 78 77 76 76 76 77 79 81 83 85 87 89 90 91 92 92 92 93 95 97 98 100 103 106 107 109 110 110 110 110 110 110
46 47 48 48 49 49 49 50 50 50 51 52 52 53 54 54 55 56 56 56 57 57 57 57 57 58 58 59 59 60 61 62 63 65 66 68 69 70 71 73 74 75 75 76 76 76 75 75 75 76 77 77 78 77 76 75 76 77 79 81 83 85 87 88 89 90 92 92 94 95 96 98 100 101 102 104 107 110 112 114 113 111 111 111 111
47 48 48 48 49 49 50 50 51 51 52 53 53 54 55 55 56 56 56 56 56 57 57 58 58 58 59 60 60 61 63 64 65 67 68 69 70 72 73 74 75 75 76 75 75 75 75 75 76 77 77 78 77 76 75 76 77 79 81 83 85 87 88 89 90 91 92 94 96 98 99 100 101 103 105 107 109 111 112 114 115 114 113 112 111
48 48 49 49 49 50 50 51 52 52 53 53 54 55 55 55 56 56 56 56 57 57 57 58 58 59 60 61 62 63 65 66 67 68 70 71 72 73 74 74 75 75 75 75 75 75 75 76 77 77 77 76 75 75 76 78 79 81 83 85 87 88 89 90 91 92 94 95 97 99 100 101 103 106 108 110 111 112 113 114 115 115 114 113 110
48 48 49 49 50 51 51 52 52 53 53 54 54 54 55 55 55 56 56 57 57 57 58 58 59 60 61 62 64 66 67 68 69 70 71 72 73 74 74 75 75 74 74 74 75 75 76 77 77 77 76 74 75 76 78 80 81 83 86 87 88 89 90 91 92 94 96 97 98 100 101 102 104 108 110 112 113 113 114 115 115 115 114 113 108
48 49 49 50 50 51 52 52 52 53 53 54 54 54 55 55 56 56 57 57 57 58 58 59 60 61 63 65 66 68 69 70 71 72 73 73 74 74 75 74 73 73 73 74 75 76 76 77 77 75 74 74 76 78 80 81 83 86 87 88 89 90 92 93 94 95 97 98 99 101 103 105 107 109 112 113 113 114 114 114 114 114 112 110 107
48 49 49 50 50 51 52 52 53 53 53 54 54 55 55 55 56 56 57 57 58 58 59 60 62 64 65 67 68 69 70 71 72 73 73 74 74 74 73 73 73 73 74 74 75 76 76 76 75 74 74 76 78 79 81 83 85 87 88 89 90 92 93 95 96 97 98 99 100 101 104 107 109 111 112 114 114 114 114 113 112 110 108 106 106
49 49 50 50 51 52 53 53 53 53 54 54 54 55 55 55 56 56 57 58 59 60 61 63 64 66 67 68 69 70 71 72 73 74 74 74 74 72 71 72 73 74 74 75 76 76 75 74 73 74 76 78 79 81 82 84 86 87 88 89 91 92 94 95 97 98 99 100 101 103 105 108 110 111 112 114 114 114 112 111 109 107 105 104 104
51 51 52 53 53 53 53 53 53 53 54 54 54 55 55 56 56 57 58 60 61 62 64 65 66 68 69 70 71 71 72 73 74 74 74 73 71 70 71 72 74 75 75 76 75 75 74 73 74 75 78 79 80 82 84 85 86 87 88 90 91 92 94 95 96 98 99 100 102 104 106 109 110 111 112 113 113 112 110 108 106 104 103 103 101
52 53 53 53 53 52 52 52 53 53 54 54 55 55 56 57 58 59 61 62 63 64 66 67 68 69 70 71 71 73 73 74 74 73 72 70 70 70 72 73 75 75 75 75 75 74 74 74 75 77 79 80 82 84 85 86 86 87 89 90 91 92 93 95 95 97 98 100 103 105 107 108 110 110 111 111 110 108 106 104 103 102 102 101 95
53 52 52 52 51 51 51 51 52 53 54 55 55 56 57 59 60 61 63 64 65 66 67 68 69 70 71 72 73 73 74 73 72 71 69 70 70 71 72 74 75 75 75 74 74 74 75 76 78 79 81 82 84 86 87 87 87 88 89 90 91 92 93 94 95 96 98 100 102 104 106 107 108 109 109 108 106 105 103 100 99 100 100 97 89
53 52 51 51 51 51 51 52 53 54 55 56 57 58 60 61 62 63 65 66 66 67 68 69 70 71 72 72 73 72 72 71 70 69 70 70 71 72 73 73 73 74 74 74 74 75 76 78 80 81 82 84 86 87 88 88 89 89 90 90 90 90 91 92 94 96 98 100 102 103 105 105 106 106 105 104 102 101 100 98 98 98 97 91 82
52 52 51 51 52 53 53 54 55 56 57 58 59 60 62 63 64 65 66 67 68 68 69 70 71 71 72 72 71 70 70 69 69 70 70 71 72 72 72 72 73 73 74 74 75 76 78 80 81 82 84 86 87 88 89 89 90 90 90 90 90 90 90 91 93 95 97 99 101 102 103 103 103 103 101 100 98 97 97 97 97 95 91 83 76
52 52 53 53 54 55 56 57 58 58 59 60 61 62 63 64 65 66 67 68 68 69 70 71 71 70 70 70 69 69 69 70 70 70 70 71 71 71 71 72 73 73 73 74 76 78 80 81 83 84 86 87 88 89 90 90 91 91 90 90 90 90 91 92 93 95 97 99 100 101 101 101 101 99 97 95 93 92 93 94 94 91 84 76 68
53 54 55 55 56 56 57 58 59 60 61 62 63 63 64 65 66 67 68 69 70 70 70 70 69 68 68 69 69 70 70 70 70 70 70 71 71 71 72 72 73 73 74 75 77 79 81 82 84 86 87 88 89 89 90 90 90 90 90 91 91 91 91 93 95 97 99 100 100 100 100 99 98 96 93 90 88 88 89 90 89 84 78 70 62
55 56 56 57 57 58 58 59 60 61 62 63 64 64 65 66 67 68 69 70 70 69 68 67 67 67 68 69 69 69 69 69 69 69 70 71 71 72 72 72 72 73 75 77 78 80 82 83 85 86 87 88 89 89 89 90 90 90 91 91 92 92 93 95 97 98 100 100 99 98 97 96 95 92 90 87 86 85 85 85 82 77 71 65 57
56 56 57 57 58 58 59 60 61 62 63 64 65 65 67 68 68 69 69 68 67 66 66 66 67 68 69 69 69 68 68 68 68 69 70 72 72 72 72 72 73 75 76 78 79 81 83 84 85 87 88 88 88 88 89 89 90 90 91 92 92 93 95 97 98 98 98 98 97 96 95 94 92 89 86 84 83 83 82 80 75 69 64 61 55
56 57 57 58 59 59 60 61 62 63 64 65 66 67 67 67 67 66 65 65 65 66 66 67 67 68 69 68 67 67 66 67 68 70 72 72 72 72 72 74 75 77 78 79 80 82 84 85 86 87 87 87 87 88 88 89 90 90 91 92 93 95 96 97 97 97 96 95 94 93 92 91 89 86 83 82 82 81 79 75 69 62 58 56 53
55 56 57 58 59 59 61 62 62 63 64 64 65 64 64 64 64 64 64 65 65 66 66 67 67 67 67 67 66 65 66 67 69 71 72 72 72 72 74 76 77 78 78 80 82 84 85 85 86 86 86 86 87 87 88 89 90 90 91 92 94 95 95 95 95 94 93 92 91 90 89 88 86 84 82 81 80 79 75 69 62 56 53 51 48
53 53 54 55 56 57 58 59 60 60 61 61 62 62 62 63 63 64 64 65 65 65 66 66 66 66 66 65 65 65 66 69 70 71 71 71 72 74 76 77 78 79 80 82 83 84 85 85 85 85 86 86 87 87 88 88 89 90 91 92 93 94 94 93 92 91 90 89 88 86 85 84 83 81 80 79 78 76 71 63 56 51 50 49 45
52 52 53 54 55 56 57 57 58 59 60 61 61 62 62 63 63 64 64 64 64 64 65 65 66 66 65 64 64 65 67 69 69 70 71 72 74 75 77 79 80 80 81 82 83 84 84 84 85 85 86 86 86 87 87 88 89 90 91 92 92 92 91 90 89 88 87 86 85 83 82 81 79 78 78 77 76 73 67 58 50 47 46 45 43
53 53 54 55 56 56 57 58 59 59 60 61 61 62 62 62 63 63 63 63 63 64 65 65 65 63 62 62 64 66 67 68 69 70 72 74 76 77 79 80 81 81 81 83 83 84 84 84 85 85 86 86 86 87 87 88 89 90 90 90 89 89 88 87 86 84 83 82 81 79 78 77 76 75 75 74 73 70 63 54 47 44 43 42 41
54 55 56 56 57 58 58 59 59 60 60 60 60 61 61 61 62 62 62 63 63 64 64 63 62 61 61 63 65 66 67 69 70 72 73 75 77 78 80 81 80 80 82 83 83 83 84 84 85 85 85 85 86 87 88 88 89 88 88 87 87 85 84 83 81 80 79 78 77 76 75 74 73 73 73 72 71 67 59 50 44 42 41 40 39
56 57 57 57 57 57 58 58 58 58 58 59 59 59 60 60 61 61 62 62 62 62 62 61 61 61 63 65 66 67 69 70 72 74 75 77 78 79 80 80 80 81 82 83 83 84 84 84 84 84 85 85 86 87 87 87 87 87 86 85 84 82 80 79 77 77 76 75 74 73 72 71 70 70 70 70 68 64 56 47 42 40 40 38 36
56 56 56 56 56 56 56 56 56 57 57 58 58 59 60 60 61 61 61 62 61 61 61 62 62 63 65 67 68 69 71 72 73 75 76 78 78 79 80 80 80 82 83 84 84 84 84 84 84 84 85 85 86 86 87 86 86 85 84 82 80 78 76 75 74 74 73 72 71 70 69 68 68 68 68 67 66 61 53 45 40 38 38 36 34
56 55 55 55 56 56 56 56 57 57 58 59 59 60 60 60 60 61 61 61 61 62 62 63 64 65 67 68 70 71 72 73 75 76 77 78 79 80 80 81 81 83 83 84 84 84 84 84 84 84 85 86 86 86 86 85 84 83 82 79 77 74 73 72 71 70 70 69 68 67 66 66 66 66 66 65 64 59 51 43 38 37 36 35 33
55 55 55 56 56 56 57 57 58 58 59 59 59 60 60 60 60 60 61 62 62 63 64 65 66 67 69 70 71 72 73 75 76 77 78 79 80 81 81 81 82 83 84 84 84 84 84 84 84 85 85 86 86 86 85 84 83 81 79 76 73 71 69 68 68 68 68 67 65 64 64 64 64 64 64 63 62 57 49 41 37 36 35 34 33
55 55 56 56 56 57 57 58 58 59 59 60 60 60 60 60 61 61 62 63 64 64 65 66 68 69 70 71 72 74 75 76 77 78 79 80 81 81 81 82 82 83 84 83 83 83 84 84 85 85 85 85 85 85 84 82 80 78 75 72 70 67 66 65 66 66 66 65 63 63 63 62 62 62 62 62 60 54 46 39 35 34 34 34 33
56 56 57 57 57 58 58 59 59 60 60 60 60 61 61 61 62 63 64 64 65 66 67 68 69 70 71 73 74 75 76 78 79 79 80 81 81 81 81 82 83 83 83 83 83 84 84 85 85 85 85 84 84 83 81 79 77 75 71 68 66 64 63 63 63 63 64 63 62 62 62 61 60 60 60 60 58 52 44 38 34 32 32 33 33
57 57 57 57 58 58 58 58 59 59 60 60 60 61 61 62 63 64 65 65 66 67 68 69 71 72 73 74 75 76 77 79 79 80 80 80 81 81 82 83 83 83 83 83 83 84 85 86 85 84 83 83 82 81 79 77 74 71 67 65 63 62 60 60 60 62 63 62 61 61 61 60 59 58 59 58 56 49 42 37 33 31 31 32 32
56 56 57 57 57 57 57 58 58 59 59 60 60 61 62 62 63 64 65 66 67 68 69 71 72 74 74 75 77 78 79 79 80 81 81 80 81 81 82 83 83 83 83 83 83 85 86 86 85 83 82 82 80 79 77 74 71 67 64 61 60 59 58 57 58 60 62 61 60 60 59 58 58 57 58 58 54 47 41 36 33 31 30 31 32
56 57 57 57 58 58 58 58 59 59 60 60 61 62 62 63 65 66 67 68 69 70 71 73 74 75 76 77 78 79 80 81 81 81 81 80 81 81 81 82 83 84 83 84 85 86 86 85 84 83 81 80 78 77 75 71 67 63 60 58 57 57 56 56 57 59 61 60 59 59 58 57 57 56 57 57 53 46 40 36 33 30 30 31 31
59 59 60 60 60 60 60 61 61 61 62 62 63 64 65 66 67 68 70 71 72 73 74 75 76 77 78 79 80 80 81 81 81 81 80 80 80 80 81 83 84 85 84 85 86 86 85 85 84 82 80 77 75 74 71 66 61 58 56 56 56 56 55 56 58 59 60 60 59 58 58 57 56 55 56 56 52 46 39 36 33 31 30 31 31
62 62 63 63 63 63 63 63 64 64 65 66 67 68 69 70 70 71 72 73 74 75 76 77 77 78 79 80 81 81 81 81 81 81 80 80 81 81 82 83 84 85 85 85 86 86 85 84 83 80 77 75 73 70 67 62 57 55 55 56 56 55 54 56 58 59 59 59 58 57 57 56 55 55 55 55 51 45 39 36 33 31 30 31 32
64 65 65 65 66 66 66 67 67 68 68 69 70 71 72 72 73 74 75 76 77 78 78 79 79 80 80 81 82 82 82 82 82 81 81 82 82 83 83 83 84 84 85 86 86 85 83 82 80 77 75 74 70 67 63 59 55 54 55 56 55 54 53 55 58 59 59 58 57 56 56 56 55 54 54 54 51 45 39 36 34 32 30 31 32
68 68 68 69 69 70 70 70 71 71 72 73 73 74 75 75 76 77 78 79 79 79 80 80 81 81 82 83 83 83 83 83 83 83 83 83 83 84 84 84 83 84 84 84 84 83 81 79 77 76 74 72 68 65 62 59 55 55 56 56 54 52 52 55 58 58 58 58 57 55 55 55 54 54 54 53 51 45 39 36 34 31 30 31 32
71 71 72 72 72 72 73 73 73 74 75 75 76 77 78 78 79 80 80 80 81 81 81 81 82 83 83 84 84 84 84 84 84 84 84 83 83 84 84 83 83 83 83 82 81 80 79 78 76 74 72 70 67 65 62 58 55 55 55 54 52 51 52 55 57 57 57 57 56 54 54 54 53 53 53 53 50 45 40 36 34 31 30 30 32
73 74 74 74 75 75 75 76 76 77 78 78 79 80 80 81 81 82 82 82 83 83 83 83 83 83 84 84 84 84 84 84 84 84 83 83 83 83 83 83 83 83 82 81 80 78 77 76 75 73 71 69 67 65 61 56 55 55 54 52 51 51 52 54 56 56 57 57 56 54 54 54 53 53 53 52 50 46 41 37 35 32 29 30 31
77 77 77 77 77 78 78 79 79 80 81 82 82 83 83 84 84 84 84 84 84 84 84 84 84 84 85 85 85 84 84 84 84 84 83 83 83 83 82 83 83 82 81 80 78 75 74 74 74 73 71 70 67 63 59 55 54 54 53 51 51 51 51 53 54 55 56 56 55 54 54 54 53 53 53 52 50 46 41 38 36 33 30 29 30
80 80 80 80 80 81 81 82 83 84 84 85 85 86 86 86 86 86 86 86 85 85 85 85 85 85 85 85 85 85 84 84 84 84 84 84 83 83 83 82 82 81 79 77 75 73 73 73 73 73 73 71 66 61 57 56 55 54 52 51 51 51 52 52 53 54 54 54 53 53 54 54 53 53 53 52 50 46 42 39 37 35 32 30 30
82 82 83 83 83 84 85 85 86 86 87 87 87 87 87 87 87 86 86 86 85 85 85 85 86 86 86 86 86 85 85 85 85 85 85 85 84 83 82 81 80 78 76 75 75 74 73 73 74 75 75 70 63 58 57 57 55 54 52 51 51 52 52 52 53 54 54 53 52 52 53 53 53 53 53 52 50 46 42 39 38 37 35 32 31
85 85 86 86 87 87 87 88 88 88 88 88 87 87 87 87 86 86 86 86 86 86 86 86 86 86 86 86 86 86 86 87 87 86 86 85 84 82 80 78 77 76 75 75 75 74 73 74 75 75 71 65 59 58 58 57 55 54 52 52 52 52 51 52 53 53 53 53 52 52 52 53 54 54 54 53 50 47 42 39 38 38 36 34 32
88 89 89 89 89 89 89 89 89 88 88 88 87 87 86 86 86 86 86 86 86 85 85 86 86 86 86 86 86 87 87 87 87 86 85 84 82 80 78 76 75 75 74 74 73 73 74 74 72 67 62 58 57 58 58 56 55 54 53 53 53 52 52 52 53 53 53 53 52 52 52 53 54 56 56 54 51 47 43 39 38 38 37 36 34
91 90 90 90 90 90 90 89 89 89 89 88 88 88 87 87 87 86 86 86 86 86 86 86 87 87 87 87 87 87 86 86 85 84 82 81 79 77 76 74 74 73 72 72 72 72 70 67 61 57 55 55 56 57 55 54 54 54 54 53 53 52 52 53 53 53 53 53 53 53 53 54 56 57 57 55 51 47 43 39 38 38 38 37 35
91 90 90 90 89 89 89 89 89 89 89 89 89 89 89 88 88 88 88 88 88 88 88 88 88 87 87 87 86 86 85 84 83 81 79 78 76 74 73 72 71 71 70 70 69 65 61 56 54 53 53 55 56 55 53 53 54 55 54 53 53 53 53 53 53 53 53 53 53 54 55 56 58 59 58 55 51 47 42 39 37 37 38 37 36
90 90 89 89 89 89 90 90 90 90 90 90 90 90 90 90 89 89 89 89 89 89 89 89 89 88 88 87 86 85 83 82 80 78 77 76 74 73 71 70 70 69 68 65 62 57 54 53 52 53 54 55 55 54 53 53 54 54 53 53 53 53 53 53 53 53 53 54 54 56 57 58 60 61 59 55 51 46 42 39 37 37 37 37 37
Wind_Direction
268 269 270 271 272 273 274 275 275 276 276 276 277 277 278 279 280 281 282 283 283 284 284 284 285 286 287 287 288 290 291 292 294 295 297 297 298 298 299 300 302 303 304 305 305 305 306 307 307 307 308 308 308 309 309 310 310 311 311 311 311 311 311 311 312 313 314 313 312 312 312 312 312 312 311 311 311 311 310 310 310 311 310 310 310
267 268 269 271 272 273 273 273 274 274 274 275 275 276 277 278 279 280 281 282 282 282 282 283 284 285 286 287 289 290 292 293 294 296 297 297 297 299 300 301 302 303 304 304 305 306 306 307 307 308 308 308 308 309 309 310 310 311 311 311 311 310 311 311 311 312 313 314 313 313 313 313 313 312 312 311 311 311 311 311 311 311 311 310 310
267 268 270 271 272 272 273 273 273 274 274 274 275 276 277 278 279 280 280 280 281 281 282 283 284 285 286 288 290 291 292 293 295 296 296 297 298 299 300 302 303 303 304 305 305 306 307 307 307 308 308 308 309 309 310 310 310 310 310 310 310 310 311 311 312 313 314 315 315 314 314 314 313 313 312 312 312 313 313 312 312 312 311 312 312
268 270 271 271 272 272 272 273 273 273 274 274 275 275 276 277 278 278 279 279 280 281 281 283 284 286 287 289 290 291 292 293 294 295 296 297 298 300 301 302 303 304 304 305 306 306 307 307 307 307 308 308 309 309 310 310 310 310 310 310 310 311 311 312 313 313 314 315 315 315 314 314 314 313 313 313 313 313 313 313 313 313 314 314 315
269 270 270 270 271 271 271 271 272 272 273 273 274 275 275 276 277 277 278 279 280 281 282 283 285 287 288 289 290 291 292 293 294 295 296 298 299 300 302 302 303 304 304 305 306 306 306 306 307 307 308 308 309 309 309 309 309 309 310 310 311 311 312 312 313 313 314 315 315 315 315 315 314 314 314 314 314 314 313 313 314 315 316 316 316
268 268 269 269 270 270 270 270 271 271 272 273 274 274 275 276 276 277 278 279 280 281 283 285 287 288 288 289 290 291 292 293 295 296 297 298 300 301 302 302 303 304 304 305 305 305 306 306 307 307 308 308 308 308 309 309 309 309 310 310 311 312 312 312 313 314 314 315 315 315 315 315 315 315 315 315 314 315 315 315 316 317 317 317 317
268 268 269 269 269 270 270 271 271 272 273 273 274 274 275 276 276 277 278 280 281 283 284 286 287 287 288 289 290 292 293 294 295 296 298 299 300 301 302 303 303 304 304 305 305 305 305 306 307 307 308 308 308 308 308 308 309 309 310 310 311 312 312 313 313 314 314 314 315 315 316 316 316 316 315 315 315 316 317 317 318 318 318 318 319
267 268 268 269 269 270 270 271 271 272 272 273 274 274 275 276 277 278 279 281 282 284 285 286 287 287 289 290 291 292 294 295 296 297 298 299 300 301 302 303 303 304 304 304 305 305 306 306 307 308 308 308 307 307 308 308 309 309 310 311 311 312 313 313 313 314 314 315 315 316 316 316 316 316 316 316 317 318 318 318 319 319 319 320 321
267 267 268 268 269 270 270 271 272 272 273 273 274 275 276 277 278 279 280 282 283 284 285 286 287 288 289 291 292 293 294 295 296 298 299 300 301 301 302 303 303 304 304 304 305 305 306 307 307 308 307 307 307 308 308 308 309 310 311 311 312 313 313 313 314 314 315 315 316 316 316 316 317 317 318 318 319 319 319 319 320 320 321 321 322
266 267 268 268 269 270 271 272 272 273 274 274 275 276 277 278 279 280 281 283 283 284 285 286 287 289 290 291 292 293 294 296 297 298 299 300 301 301 302 303 303 303 304 304 305 305 306 307 307 307 307 307 307 308 308 309 310 311 312 312 313 313 313 314 314 315 315 316 316 316 316 317 318 319 319 320 320 320 321 321 321 321 322 322 323
265 267 268 269 270 271 272 273 274 274 275 276 277 278 279 280 281 281 282 283 284 284 286 287 288 289 290 291 293 294 295 296 297 298 299 300 301 301 302 303 303 303 303 304 305 305 306 307 307 307 307 307 307 308 308 310 311 312 312 313 313 314 314 314 315 315 316 316 317 317 318 319 320 320 320 321 321 321 322 322 323 323 324 324 324
266 267 268 269 270 272 273 274 275 276 277 278 278 279 280 280 281 282 282 283 284 285 286 288 289 290 291 292 293 294 296 297 297 298 299 300 301 301 302 302 302 302 303 304 304 305 306 306 306 306 306 306 307 308 309 310 311 312 313 313 313 314 314 315 315 316 316 316 318 319 320 321 321 321 321 321 322 322 323 324 324 324 325 326 326
266 267 268 270 271 272 273 275 276 277 278 279 279 280 280 280 281 282 283 284 285 286 287 288 289 290 291 292 293 295 296 297 297 298 299 300 300 301 301 302 302 302 303 303 304 305 305 305 305 305 306 306 307 308 309 310 311 312 313 313 313 314 315 315 316 316 317 318 319 321 321 322 322 322 322 322 323 324 325 326 325 325 326 327 327
267 268 269 271 272 274 276 277 278 278 279 279 279 280 280 281 282 283 283 284 285 286 287 288 289 290 291 293 294 295 296 296 297 298 299 299 300 301 301 301 302 302 303 303 304 304 304 304 304 305 306 306 307 308 309 310 311 312 312 313 313 314 315 316 316 317 318 320 321 322 322 322 322 322 323 324 325 325 326 327 326 326 327 328 328
268 270 271 272 274 275 276 277 277 278 278 278 279 279 280 281 282 283 283 284 285 286 287 288 290 291 292 293 294 295 295 296 297 298 299 299 300 301 301 301 302 302 302 303 303 303 304 304 304 305 306 306 307 308 309 310 311 311 312 312 313 314 315 315 316 318 319 321 322 322 322 322 323 324 324 325 326 326 327 327 326 326 327 328 329
270 271 272 273 274 274 275 275 276 276 277 277 278 279 280 281 282 282 283 284 286 287 288 289 290 291 293 293 294 294 295 296 297 298 299 299 300 301 301 301 301 302 302 302 303 303 303 304 305 306 306 306 307 308 309 310 311 311 311 312 313 314 315 316 318 319 320 321 322 322 322 323 324 325 326 326 326 327 327 326 326 326 327 328 329
271 272 273 273 274 274 274 274 274 275 276 277 278 279 280 281 282 283 284 285 286 287 289 290 291 292 293 293 293 294 295 296 297 298 299 300 300 300 300 300 301 301 301 302 303 303 304 305 305 305 306 307 308 309 309 310 310 310 311 311 313 314 316 317 319 320 321 321 322 322 323 324 325 326 326 327 327 326 326 326 326 327 328 328 329
271 272 272 272 272 273 273 274 275 276 277 278 278 279 280 281 282 283 285 286 287 288 289 290 291 291 292 292 293 294 295 296 297 298 299 300 300 299 300 300 300 300 301 302 303 303 304 305 305 305 306 307 308 309 309 309 310 310 310 312 313 315 316 318 318 319 320 320 321 322 323 324 325 326 327 327 327 326 326 326 327 328 329 329 330
271 271 271 271 272 273 274 275 276 276 277 278 279 280 281 282 283 284 285 286 287 288 289 290 290 291 292 292 293 294 295 297 298 298 299 299 298 298 299 299 299 300 301 302 303 303 304 304 304 305 306 307 308 308 309 309 309 310 311 313 315 316 317 318 318 318 318 319 320 322 323 325 325 326 327 327 326 326 326 327 328 328 329 330 331
270 270 271 271 272 274 274 275 276 276 277 278 279 280 281 282 284 285 286 287 288 288 289 290 290 291 291 292 293 294 296 297 297 297 297 297 297 297 298 298 299 300 301 301 302 303 303 303 304 305 306 307 308 308 308 309 310 312 313 315 316 317 317 318 318 318 319 320 321 323 324 325 326 326 326 326 326 326 327 328 328 328 329 331 332
269 270 271 272 273 274 274 275 275 276 277 278 280 281 282 283 284 285 286 286 287 288 288 289 290 290 291 292 293 294 296 296 296 296 296 295 296 296 297 298 299 300 300 301 301 302 302 303 304 305 306 306 307 307 308 310 312 313 314 315 316 317 317 317 318 319 320 322 323 324 325 326 326 327 326 327 327 328 329 329 328 328 329 331 332
269 270 270 271 272 273 274 274 275 276 278 279 280 281 282 283 284 284 285 286 286 287 288 288 289 290 290 291 293 294 295 295 295 295 294 294 295 296 297 298 298 299 299 300 300 301 302 303 304 304 305 305 306 308 310 311 313 314 315 315 316 316 317 318 319 320 322 323 324 325 326 326 327 327 327 328 328 329 330 329 329 329 330 332 333
269 269 270 271 272 273 274 275 276 277 278 279 280 281 282 282 283 283 284 285 285 286 287 288 288 289 290 292 293 293 294 294 294 293 293 294 295 296 296 297 297 298 298 299 300 301 302 302 303 303 304 306 307 309 311 312 313 314 315 315 316 316 318 319 321 322 323 324 325 326 326 326 327 327 328 329 330 331 331 330 329 330 331 333 332
270 271 272 273 274 274 275 276 277 277 278 279 279 280 280 281 282 282 283 284 285 286 286 287 288 289 290 291 292 293 294 293 292 292 293 294 294 295 295 296 296 297 298 299 300 300 301 301 302 303 305 307 309 311 312 313 313 314 314 314 315 317 319 321 322 323 324 325 326 326 326 327 327 328 329 331 332 333 332 331 330 330 331 332 333
273 274 275 275 276 276 277 277 277 277 278 278 279 279 280 281 282 282 283 284 284 285 285 286 287 288 290 291 292 293 291 290 290 291 292 293 293 294 295 295 296 298 299 299 299 299 300 301 303 305 307 309 310 311 312 312 313 313 314 315 317 319 320 322 323 323 324 325 326 326 327 327 328 329 330 332 333 333 333 330 329 330 331 332 334
276 276 277 277 277 277 277 278 278 278 279 279 280 280 281 281 281 282 283 283 284 284 285 286 287 289 290 291 291 289 288 288 289 290 291 292 292 294 295 295 296 297 298 298 298 300 301 303 305 307 308 309 310 311 311 312 312 313 314 316 318 320 321 322 323 323 324 325 326 327 327 327 328 329 331 332 333 334 332 329 328 329 330 332 334
277 277 277 277 278 278 278 278 279 279 279 280 280 280 280 281 281 282 283 283 284 284 285 286 288 289 289 288 287 286 286 287 289 290 291 291 292 293 294 295 296 297 297 298 299 301 303 305 306 308 308 309 310 311 311 311 312 314 316 318 319 320 321 322 323 324 325 326 327 327 327 328 329 330 331 332 334 334 332 328 327 328 330 331 334
278 278 278 278 278 278 278 278 279 279 279 279 280 280 281 282 282 283 283 284 284 285 286 287 287 287 286 285 284 285 287 288 289 290 291 291 292 293 294 295 296 297 298 298 300 302 304 306 307 307 308 309 310 310 311 312 313 316 318 319 319 320 321 322 323 324 325 326 327 327 327 328 329 330 331 332 334 334 331 327 326 327 329 331 333
278 278 278 278 278 278 278 279 279 279 280 281 281 282 282 283 283 284 284 284 285 285 286 286 286 284 284 284 285 287 288 289 289 290 290 291 292 293 294 296 297 298 298 300 302 303 304 305 306 307 308 309 309 310 310 312 315 317 318 318 319 320 321 322 323 324 325 326 327 327 327 328 329 330 331 332 333 333 330 326 324 326 329 331 333
277 278 278 278 279 279 280 280 281 281 282 282 283 283 283 284 284 284 284 284 285 285 285 285 284 284 284 286 287 287 288 289 289 290 291 292 293 295 296 297 298 298 299 301 302 303 304 305 306 307 307 308 308 309 310 313 315 316 317 318 319 319 320 321 322 324 326 327 327 327 327 328 329 330 331 333 333 332 329 325 323 325 328 330 331
278 278 278 279 279 280 281 281 281 282 282 282 282 283 283 283 283 283 284 284 285 285 285 285 285 285 286 287 287 287 288 289 290 291 292 294 295 296 297 298 298 299 300 301 302 303 304 305 305 306 307 307 308 309 312 314 315 316 317 317 318 319 320 321 322 324 326 328 327 327 327 328 329 330 331 332 333 331 328 325 323 325 328 329 329
278 278 278 278 279 279 280 280 280 281 282 282 282 283 283 283 284 284 284 285 285 286 286 286 286 286 287 287 288 289 290 291 292 293 294 295 295 296 297 298 298 299 300 301 302 303 304 304 305 306 306 307 309 311 313 314 315 316 316 316 317 318 319 321 322 325 327 328 328 327 327 328 328 329 331 332 332 331 328 324 323 325 328 329 328
278 278 278 279 279 280 280 281 282 282 283 283 284 284 284 284 284 284 284 285 286 286 286 286 287 287 288 289 290 291 292 293 293 294 294 295 295 296 297 297 298 299 300 301 302 303 303 304 305 306 307 308 310 311 313 314 314 315 315 315 316 318 319 321 323 326 328 329 328 327 327 327 328 329 330 332 332 330 327 323 321 323 326 328 327
279 279 279 279 280 280 281 281 281 282 282 283 283 283 283 283 284 284 284 285 286 286 287 287 288 289 289 290 291 292 292 293 293 293 294 294 295 296 297 298 298 299 300 301 302 303 303 303 305 306 308 309 310 312 313 313 314 314 314 314 315 317 319 321 324 326 329 329 327 326 326 326 327 328 330 332 331 329 325 322 321 322 325 327 326
279 278 278 278 278 279 279 279 279 280 280 281 281 281 282 282 283 284 284 285 286 287 288 288 289 290 290 291 291 291 292 292 293 293 294 295 296 297 297 298 298 299 300 301 302 302 302 304 305 307 308 309 310 311 312 312 313 313 312 313 314 316 318 321 324 327 328 328 326 325 325 326 326 328 330 331 331 327 324 321 319 321 324 326 326
277 277 277 277 277 278 278 278 279 279 280 280 281 282 282 283 284 285 286 287 288 288 289 289 290 290 291 291 291 291 292 293 293 294 295 295 296 296 297 298 298 299 300 301 301 301 303 304 306 307 307 308 309 310 311 312 312 311 310 311 313 315 318 320 323 326 327 327 325 324 324 325 326 328 329 331 330 326 322 319 318 319 322 325 325
277 277 277 278 278 279 279 280 281 281 282 282 283 284 284 285 286 287 288 289 289 290 290 291 291 291 291 291 291 292 292 293 293 294 295 295 296 296 297 298 298 299 300 300 301 302 303 304 305 306 306 307 308 309 310 310 310 309 308 310 313 315 317 319 323 325 326 325 324 323 323 324 326 327 329 330 329 325 320 317 316 317 320 323 324
279 280 280 281 281 282 282 282 283 283 283 284 285 286 287 288 288 289 290 290 291 291 291 291 291 291 291 291 291 292 292 293 293 294 295 295 296 296 297 297 298 299 300 300 301 302 303 303 304 305 306 307 308 308 309 308 307 306 306 309 313 315 316 318 321 324 324 324 322 322 323 324 325 327 329 330 328 323 317 315 314 314 317 320 321
281 281 282 282 282 282 282 282 282 283 284 285 286 287 288 289 290 290 291 291 291 291 291 291 291 291 290 290 291 292 292 293 293 294 294 295 296 296 296 297 298 299 300 300 300 301 302 303 303 304 304 305 306 307 307 306 304 303 305 309 312 313 314 316 320 322 322 322 321 322 323 324 325 326 328 330 328 322 315 312 312 311 313 316 317
281 281 281 281 281 281 281 281 282 283 285 286 287 288 289 290 291 291 291 291 291 291 291 291 291 290 290 290 291 291 292 293 293 294 295 295 296 296 296 297 298 298 299 299 299 300 301 302 302 302 303 304 306 307 306 304 302 302 305 309 311 311 312 315 318 320 320 320 320 321 322 323 324 326 328 329 327 321 312 308 308 308 309 311 312
280 280 280 280 280 280 281 282 283 285 286 287 289 290 291 291 291 291 291 291 291 290 290 290 290 289 289 290 291 292 292 293 294 294 295 295 295 295 296 297 297 297 297 297 298 299 299 299 299 300 302 305 306 307 305 302 300 301 305 308 309 309 310 313 317 318 318 318 319 320 321 322 323 325 327 328 326 320 310 304 304 304 304 305 305
278 278 278 279 280 281 282 283 285 286 288 289 290 290 290 290 290 290 290 290 289 289 289 289 289 289 289 290 291 292 292 293 293 293 294 294 294 294 295 296 296 295 295 296 296 297 297 297 299 301 303 305 305 304 303 300 298 301 305 307 307 307 309 313 315 316 316 317 317 319 320 321 322 324 326 327 326 320 310 301 299 299 299 299 299
277 278 279 280 282 283 285 286 287 288 289 290 290 290 290 290 289 289 289 289 288 288 288 288 288 289 289 290 291 291 292 292 292 292 292 293 293 294 294 294 294 294 294 294 295 296 297 298 299 300 301 302 301 301 300 297 298 301 305 305 304 305 308 312 313 314 314 315 316 318 319 320 320 322 325 326 325 320 310 300 294 293 293 293 293
279 280 282 283 285 286 287 288 289 289 289 289 289 289 289 289 288 288 288 288 287 288 288 288 288 289 289 290 290 290 291 291 291 291 292 292 292 292 292 292 292 292 293 294 295 296 296 296 296 297 298 299 298 297 296 296 298 302 304 303 302 303 307 310 311 312 313 314 315 317 318 319 319 321 323 325 324 319 311 301 293 289 288 288 288
282 283 284 285 286 287 288 288 288 288 288 288 288 287 287 287 287 287 287 287 287 287 287 288 288 288 288 289 289 289 290 290 290 290 291 291 291 291 291 291 292 293 294 294 294 294 293 292 292 294 296 296 295 294 294 295 298 301 302 300 300 302 305 307 309 310 311 312 314 315 316 317 318 320 322 323 322 318 310 302 294 287 284 284 285
284 285 285 286 286 286 286 286 286 286 286 286 286 286 285 286 286 286 286 286 286 287 287 287 287 287 288 288 288 288 288 289 289 290 290 290 290 291 291 291 292 292 291 291 291 290 290 289 290 291 293 293 292 291 292 295 298 300 299 298 298 301 304 305 307 308 309 311 312 313 314 316 317 318 320 322 321 316 309 302 294 288 282 280 281
285 285 285 285 285 284 284 284 284 284 284 284 284 284 285 285 285 285 285 286 286 286 286 286 286 286 287 287 287 287 288 288 289 289 289 290 290 290 290 290 289 288 287 287 288 288 287 287 287 289 290 290 290 291 293 295 297 298 297 296 297 300 302 304 305 307 308 309 311 312 313 314 316 317 319 320 319 314 308 301 294 288 282 277 277
284 283 283 283 283 283 283 283 283 283 283 284 284 284 284 284 285 285 285 285 285 285 285 285 285 286 286 286 287 287 287 288 288 289 289 289 289 289 288 288 287 286 286 285 285 285 285 285 286 288 288 288 289 291 293 294 295 296 296 296 297 299 302 303 304 306 307 309 310 311 312 313 314 316 317 317 316 312 306 299 294 288 282 276 273
281 281 281 281 282 282 282 283 283 283 284 284 284 284 284 285 285 285 285 284 285 285 285 285 285 286 286 286 287 287 287 288 288 288 288 288 288 287 287 286 285 285 284 283 283 283 284 285 285 286 286 287 289 291 292 292 293 294 295 295 297 299 301 302 304 305 307 308 309 310 311 312 313 314 315 315 313 309 303 298 293 288 283 277 272
280 280 280 281 281 282 282 283 283 283 284 284 284 284 285 285 285 285 284 285 285 285 285 285 285 286 286 286 286 287 287 287 287 287 287 287 286 286 285 284 283 283 282 282 282 283 283 283 283 284 285 288 290 290 290 291 293 294 294 295 297 299 300 302 304 305 306 308 309 310 311 312 313 313 313 312 310 305 300 295 292 288 283 278 273
279 280 280 281 281 282 282 282 283 283 283 284 284 284 284 284 284 284 284 285 285 285 285 286 286 286 286 286 286 286 287 287 287 286 286 286 285 285 284 283 283 282 282 283 282 282 281 281 282 284 286 288 288 288 288 290 292 292 293 295 297 299 300 302 304 305 306 307 308 310 311 312 312 312 312 310 306 301 296 292 290 287 283 279 275
Height
5823 5824 5824 5823 5823 5822 5822 5821 5820 5819 5818 5818 5817 5816 5815 5814 5813 5812 5811 5810 5808 5806 5805 5803 5801 5800 5798 5796 5793 5791 5789 5787 5784 5782 5779 5777 5774 5771 5768 5765 5762 5759 5756 5752 5748 5744 5741 5737 5733 5729 5724 5720 5716 5711 5706 5701 5696 5692 5686 5683 5679 5672 5669 5668 5664 5668 5676 5672 5661 5656 5648 5640 5637 5630 5622 5620 5620 5616 5609 5601 5595 5589 5581 5572 5565
5819 5819 5819 5819 5818 5818 5817 5816 5815 5814 5814 5813 5812 5811 5810 5809 5808 5807 5805 5804 5803 5801 5799 5798 5796 5794 5792 5790 5788 5786 5783 5781 5779 5776 5774 5771 5768 5765 5762 5759 5756 5752 5749 5745 5741 5737 5734 5730 5726 5721 5717 5712 5708 5704 5700 5695 5689 5685 5680 5674 5671 5665 5659 5657 5655 5652 5658 5662 5655 5647 5641 5632 5624 5618 5610 5604 5602 5602 5599 5592 5586 5580 5573 5563 5552
5814 5814 5814 5814 5813 5812 5812 5811 5810 5809 5808 5807 5806 5806 5805 5804 5803 5801 5800 5798 5797 5795 5794 5792 5790 5788 5786 5784 5782 5780 5778 5775 5773 5770 5767 5764 5762 5759 5756 5752 5749 5745 5742 5738 5734 5730 5726 5723 5719 5714 5710 5705 5701 5697 5693 5688 5683 5678 5673 5668 5663 5659 5652 5646 5644 5641 5641 5645 5644 5636 5631 5625 5617 5608 5600 5593 5587 5583 5581 5577 5572 5567 5562 5553 5542
5808 5808 5808 5808 5807 5806 5806 5805 5804 5803 5802 5802 5801 5800 5799 5798 5797 5795 5794 5793 5791 5789 5788 5786 5784 5782 5780 5778 5776 5774 5772 5769 5767 5764 5761 5758 5755 5752 5749 5746 5742 5738 5735 5731 5727 5723 5719 5715 5711 5707 5703 5698 5693 5690 5685 5681 5677 5671 5666 5662 5656 5651 5646 5639 5634 5630 5627 5628 5629 5624 5617 5612 5607 5598 5588 5583 5579 5572 5567 5562 5556 5550 5544 5537 5526
5802 5802 5802 5801 5801 5800 5799 5798 5798 5797 5796 5796 5795 5794 5793 5792 5790 5789 5788 5786 5785 5783 5782 5780 5778 5776 5774 5772 5770 5768 5766 5763 5761 5758 5755 5752 5749 5746 5742 5739 5735 5731 5728 5724 5720 5716 5712 5708 5704 5700 5696 5692 5687 5683 5679 5673 5669 5664 5658 5654 5649 5643 5638 5632 5626 5621 5616 5613 5612 5611 5606 5599 5594 5588 5577 5567 5564 5560 5556 5552 5546 5536 5528 5523 5515
5796 5796 5795 5794 5794 5793 5793 5792 5791 5791 5790 5789 5789 5788 5787 5785 5784 5783 5782 5780 5779 5777 5776 5774 5772 5770 5768 5766 5764 5762 5759 5757 5754 5752 5749 5746 5742 5739 5735 5732 5728 5724 5721 5717 5713 5709 5705 5700 5697 5693 5689 5685 5681 5676 5672 5667 5662 5657 5652 5647 5642 5637 5632 5626 5619 5614 5609 5603 5598 5596 5594 5588 5580 5576 5569 5558 5549 5543 5535 5532 5532 5525 5515 5509 5504
5789 5789 5788 5788 5787 5787 5786 5786 5785 5785 5784 5783 5782 5781 5780 5779 5778 5777 5775 5774 5773 5771 5770 5768 5766 5764 5762 5760 5757 5755 5753 5750 5748 5745 5742 5739 5735 5732 5728 5725 5721 5717 5713 5709 5705 5701 5697 5693 5689 5686 5681 5677 5673 5669 5664 5660 5655 5650 5645 5640 5635 5630 5624 5619 5613 5606 5601 5596 5589 5583 5580 5576 5567 5561 5557 5549 5540 5532 5520 5510 5510 5509 5502 5495 5488
5782 5782 5782 5781 5781 5780 5780 5779 5779 5778 5778 5777 5776 5775 5774 5773 5772 5770 5769 5768 5766 5765 5763 5762 5760 5758 5755 5753 5751 5749 5746 5744 5741 5739 5735 5732 5729 5725 5721 5717 5713 5709 5705 5701 5698 5693 5689 5685 5681 5678 5674 5669 5665 5661 5656 5652 5648 5643 5638 5633 5627 5622 5617 5610 5605 5599 5593 5587 5580 5573 5568 5564 5557 5548 5544 5537 5528 5522 5513 5500 5492 5488 5484 5480 5474
5776 5775 5775 5775 5775 5774 5774 5774 5773 5772 5772 5771 5770 5769 5768 5767 5766 5764 5763 5761 5760 5758 5757 5755 5753 5751 5749 5747 5744 5742 5740 5737 5734 5732 5728 5725 5722 5718 5714 5710 5706 5702 5697 5693 5690 5686 5681 5678 5674 5669 5665 5661 5656 5652 5648 5644 5640 5635 5630 5624 5619 5613 5608 5602 5596 5590 5585 5579 5572 5564 5558 5554 5546 5535 5528 5523 5514 5507 5500 5490 5481 5474 5467 5463 5461
5769 5769 5769 5769 5769 5769 5768 5767 5767 5766 5765 5765 5764 5763 5762 5760 5759 5758 5756 5755 5753 5752 5750 5748 5746 5744 5742 5740 5737 5735 5733 5730 5727 5725 5721 5717 5714 5711 5707 5703 5699 5695 5691 5686 5682 5678 5674 5670 5666 5662 5657 5653 5649 5644 5640 5635 5630 5625 5620 5614 5609 5603 5598 5593 5587 5580 5574 5569 5563 5554 5547 5543 5536 5523 5512 5507 5502 5494 5486 5477 5467 5460 5453 5445 5443
5764 5764 5764 5763 5763 5763 5762 5761 5760 5760 5759 5758 5757 5756 5755 5753 5752 5751 5749 5748 5746 5745 5743 5742 5739 5737 5735 5733 5730 5728 5726 5723 5720 5717 5714 5710 5707 5703 5699 5696 5692 5688 5684 5680 5675 5671 5667 5662 5658 5654 5650 5646 5642 5637 5632 5627 5622 5617 5611 5604 5598 5593 5587 5582 5577 5571 5564 5559 5554 5545 5533 5527 5522 5513 5501 5493 5489 5482 5474 5465 5453 5444 5438 5428 5421
5758 5758 5757 5757 5757 5756 5755 5755 5754 5753 5752 5751 5750 5749 5748 5746 5745 5744 5742 5741 5740 5738 5737 5735 5733 5730 5728 5726 5723 5721 5718 5716 5713 5709 5706 5703 5699 5696 5692 5688 5684 5680 5676 5672 5668 5664 5660 5656 5651 5647 5643 5639 5635 5630 5625 5620 5615 5609 5603 5597 5590 5583 5577 5571 5565 5560 5554 5548 5543 5536 5524 5513 5508 5502 5491 5481 5476 5470 5462 5454 5443 5432 5426 5417 5406
5751 5751 5751 5750 5750 5749 5748 5748 5747 5746 5746 5744 5743 5742 5741 5739 5738 5737 5736 5734 5733 5731 5730 5728 5726 5723 5721 5718 5716 5714 5711 5708 5705 5702 5699 5695 5692 5688 5685 5680 5676 5672 5668 5665 5661 5657 5653 5649 5645 5640 5636 5632 5627 5623 5619 5614 5608 5602 5596 5590 5583 5576 5570 5563 5556 5549 5543 5536 5530 5524 5515 5504 5496 5490 5481 5470 5461 5454 5448 5440 5431 5421 5415 5409 5398
5745 5745 5744 5743 5743 5743 5742 5741 5740 5740 5739 5737 5736 5735 5733 5732 5731 5730 5729 5727 5726 5724 5722 5720 5718 5716 5713 5711 5708 5706 5703 5700 5697 5694 5691 5688 5685 5681 5677 5673 5668 5664 5661 5657 5653 5650 5646 5642 5638 5634 5629 5624 5620 5616 5612 5608 5602 5597 5590 5583 5577 5570 5564 5557 5550 5542 5534 5525 5518 5512 5505 5496 5487 5479 5471 5461 5450 5441 5434 5426 5417 5408 5403 5398 5390
5738 5738 5737 5737 5737 5736 5735 5735 5734 5732 5731 5730 5729 5728 5727 5726 5724 5723 5722 5720 5718 5717 5715 5713 5711 5708 5706 5703 5701 5698 5695 5692 5689 5687 5684 5680 5677 5674 5669 5665 5661 5657 5653 5649 5645 5641 5638 5634 5630 5626 5621 5617 5612 5608 5604 5601 5596 5591 5585 5578 5572 5565 5558 5552 5545 5536 5528 5519 5510 5502 5495 5487 5478 5470 5460 5451 5441 5432 5426 5418 5408 5399 5393 5390 5385
5731 5731 5731 5730 5730 5729 5728 5727 5726 5725 5724 5723 5722 5721 5720 5718 5717 5716 5714 5712 5711 5709 5707 5705 5703 5700 5698 5695 5693 5690 5687 5685 5682 5679 5676 5673 5669 5666 5662 5658 5653 5649 5645 5641 5637 5633 5629 5626 5622 5618 5613 5608 5604 5599 5595 5592 5588 5584 5579 5573 5567 5560 5553 5545 5537 5528 5520 5513 5506 5497 5489 5480 5471 5462 5452 5441 5432 5423 5418 5412 5405 5396 5387 5382 5379
5724 5724 5723 5723 5722 5722 5721 5720 5719 5718 5717 5716 5715 5714 5713 5711 5710 5708 5706 5705 5703 5701 5699 5697 5695 5693 5690 5687 5685 5682 5679 5677 5674 5671 5668 5665 5661 5658 5654 5650 5646 5642 5638 5634 5629 5625 5621 5617 5613 5609 5605 5600 5595 5590 5586 5582 5579 5575 5571 5568 5562 5556 5548 5540 5532 5523 5514 5506 5499 5491 5483 5474 5466 5458 5447 5436 5425 5415 5408 5403 5397 5390 5381 5373 5369
5717 5716 5716 5715 5714 5714 5713 5712 5712 5711 5710 5709 5708 5706 5705 5704 5702 5701 5699 5697 5695 5693 5692 5690 5687 5685 5682 5679 5676 5674 5671 5668 5666 5663 5660 5657 5653 5650 5647 5643 5639 5635 5630 5626 5622 5617 5613 5609 5604 5600 5596 5591 5586 5582 5577 5573 5569 5565 5562 5559 5555 5549 5542 5536 5530 5523 5514 5505 5496 5487 5478 5468 5460 5452 5444 5433 5422 5411 5401 5394 5387 5382 5375 5367 5360
5710 5709 5708 5707 5707 5706 5706 5705 5705 5704 5703 5701 5700 5699 5698 5696 5695 5693 5691 5689 5688 5686 5684 5682 5680 5677 5674 5671 5668 5665 5663 5661 5658 5655 5652 5649 5646 5642 5639 5636 5632 5628 5624 5619 5614 5610 5605 5600 5596 5591 5587 5582 5578 5573 5568 5564 5560 5556 5551 5548 5544 5539 5534 5528 5522 5517 5512 5504 5496 5487 5478 5467 5457 5449 5442 5433 5423 5411 5399 5389 5380 5374 5369 5363 5355
5702 5701 5701 5700 5700 5700 5699 5698 5697 5696 5695 5694 5693 5691 5690 5689 5687 5685 5684 5682 5680 5678 5676 5674 5671 5669 5666 5663 5660 5658 5655 5653 5651 5648 5645 5641 5638 5635 5632 5629 5625 5621 5617 5612 5608 5603 5598 5592 5587 5582 5578 5573 5568 5564 5560 5555 5550 5545 5540 5536 5532 5529 5525 5519 5513 5506 5500 5495 5488 5480 5472 5463 5454 5445 5437 5429 5421 5411 5399 5387 5377 5369 5363 5359 5353
5695 5694 5694 5694 5693 5693 5692 5691 5690 5689 5688 5686 5685 5684 5683 5681 5680 5678 5676 5674 5672 5670 5668 5665 5663 5660 5658 5655 5653 5651 5649 5646 5643 5640 5637 5633 5631 5628 5625 5621 5618 5614 5610 5605 5601 5596 5591 5585 5580 5575 5570 5565 5561 5556 5551 5546 5540 5535 5530 5526 5521 5517 5513 5509 5503 5496 5489 5483 5477 5470 5462 5456 5449 5440 5431 5422 5414 5406 5396 5385 5375 5367 5360 5355 5351
5688 5687 5687 5686 5686 5685 5684 5684 5683 5681 5680 5679 5678 5677 5675 5674 5672 5670 5668 5666 5664 5662 5660 5657 5655 5652 5650 5647 5646 5644 5641 5639 5636 5632 5629 5625 5622 5620 5617 5614 5610 5607 5603 5598 5594 5589 5584 5579 5574 5569 5564 5558 5553 5548 5542 5537 5532 5526 5521 5516 5512 5507 5503 5497 5492 5486 5479 5473 5467 5460 5453 5447 5441 5434 5426 5417 5408 5399 5390 5381 5373 5365 5358 5352 5347
5680 5680 5680 5679 5678 5678 5677 5676 5675 5674 5673 5672 5670 5669 5668 5666 5664 5662 5660 5658 5656 5654 5652 5650 5647 5645 5642 5640 5638 5636 5634 5631 5628 5624 5621 5617 5615 5612 5609 5606 5602 5599 5595 5591 5586 5581 5576 5572 5567 5562 5557 5552 5546 5540 5534 5529 5523 5518 5513 5508 5503 5498 5493 5487 5481 5475 5468 5462 5457 5450 5443 5437 5431 5425 5418 5411 5402 5392 5383 5375 5368 5362 5356 5351 5346
5673 5673 5673 5672 5671 5671 5669 5668 5668 5666 5665 5664 5662 5661 5660 5658 5656 5654 5652 5650 5648 5646 5644 5641 5639 5637 5635 5633 5631 5629 5626 5623 5619 5616 5613 5610 5607 5604 5601 5597 5594 5591 5587 5583 5578 5573 5569 5565 5560 5555 5550 5544 5538 5532 5527 5521 5516 5511 5505 5500 5495 5490 5484 5478 5472 5466 5460 5454 5448 5441 5434 5427 5421 5415 5410 5403 5395 5386 5377 5369 5362 5358 5354 5350 5345
5666 5666 5665 5665 5664 5663 5662 5661 5660 5658 5657 5656 5654 5653 5651 5649 5648 5646 5644 5642 5640 5638 5636 5633 5631 5629 5627 5625 5623 5621 5618 5615 5611 5608 5605 5602 5599 5596 5593 5589 5586 5583 5579 5574 5569 5565 5561 5556 5552 5546 5541 5536 5530 5525 5520 5514 5509 5503 5498 5492 5487 5481 5475 5470 5464 5458 5453 5447 5441 5434 5427 5420 5413 5407 5401 5395 5388 5380 5373 5366 5360 5355 5351 5346 5343
5659 5659 5658 5657 5656 5655 5654 5653 5651 5650 5649 5647 5646 5644 5643 5641 5639 5637 5636 5634 5632 5630 5627 5625 5623 5621 5619 5618 5616 5613 5610 5607 5604 5601 5598 5594 5591 5588 5585 5581 5577 5575 5571 5565 5561 5556 5552 5547 5543 5537 5532 5527 5523 5518 5512 5507 5501 5495 5489 5484 5478 5473 5468 5462 5457 5451 5446 5440 5434 5427 5420 5414 5408 5401 5394 5389 5382 5376 5370 5364 5359 5354 5350 5345 5341
5651 5650 5650 5649 5648 5647 5645 5644 5643 5641 5640 5639 5637 5636 5634 5633 5631 5629 5628 5625 5623 5621 5619 5617 5615 5614 5612 5610 5608 5605 5602 5599 5596 5593 5590 5586 5583 5580 5576 5572 5569 5566 5562 5557 5552 5548 5543 5539 5534 5529 5524 5519 5515 5510 5504 5499 5493 5487 5481 5476 5470 5465 5460 5454 5449 5443 5438 5433 5428 5421 5415 5408 5402 5396 5390 5384 5378 5372 5365 5360 5356 5352 5348 5344 5340
5642 5642 5641 5640 5639 5638 5636 5635 5634 5633 5631 5630 5629 5627 5626 5624 5623 5621 5619 5617 5615 5613 5611 5609 5608 5606 5604 5601 5599 5596 5594 5591 5588 5585 5582 5578 5575 5572 5568 5564 5561 5557 5553 5548 5544 5539 5535 5530 5526 5521 5516 5511 5506 5501 5496 5490 5484 5479 5473 5468 5463 5458 5452 5447 5441 5436 5431 5426 5421 5416 5410 5404 5398 5392 5385 5379 5374 5368 5362 5357 5353 5350 5346 5343 5339
5634 5633 5632 5631 5630 5629 5628 5627 5626 5625 5623 5622 5621 5619 5618 5616 5614 5612 5610 5609 5607 5605 5603 5601 5599 5597 5595 5592 5590 5588 5586 5583 5580 5576 5573 5570 5567 5563 5559 5556 5552 5548 5543 5539 5535 5531 5527 5523 5518 5513 5509 5504 5499 5494 5489 5484 5478 5472 5466 5461 5457 5451 5446 5440 5435 5430 5425 5421 5415 5410 5405 5399 5394 5388 5381 5375 5369 5364 5359 5355 5351 5347 5344 5341 5337
5626 5625 5624 5623 5622 5621 5620 5619 5618 5616 5615 5614 5612 5611 5609 5607 5606 5604 5602 5600 5598 5597 5595 5593 5591 5588 5586 5584 5582 5579 5577 5574 5571 5568 5564 5560 5557 5554 5550 5547 5543 5538 5533 5530 5527 5523 5518 5515 5510 5506 5502 5497 5493 5488 5483 5478 5472 5466 5460 5455 5450 5445 5440 5434 5429 5424 5420 5415 5410 5405 5400 5394 5389 5383 5377 5371 5366 5360 5356 5352 5349 5346 5342 5339 5335
5618 5617 5616 5615 5614 5613 5612 5611 5610 5608 5607 5605 5604 5602 5600 5599 5597 5595 5593 5591 5590 5588 5586 5584 5582 5580 5577 5575 5572 5570 5568 5565 5562 5558 5554 5551 5547 5544 5541 5537 5533 5529 5525 5522 5518 5514 5510 5506 5502 5498 5494 5489 5484 5480 5475 5470 5465 5460 5454 5449 5443 5439 5434 5429 5424 5419 5415 5410 5405 5400 5395 5390 5384 5379 5374 5368 5363 5357 5353 5349 5346 5343 5340 5337 5334
5610 5609 5608 5607 5606 5605 5604 5603 5601 5599 5598 5596 5595 5593 5592 5590 5588 5586 5584 5583 5581 5580 5578 5576 5573 5571 5569 5566 5563 5561 5558 5556 5552 5548 5545 5541 5538 5535 5531 5528 5524 5520 5516 5513 5510 5506 5502 5498 5494 5490 5485 5480 5475 5470 5466 5462 5457 5452 5447 5442 5437 5432 5428 5423 5419 5414 5409 5405 5400 5395 5390 5385 5380 5374 5370 5365 5360 5354 5350 5347 5343 5340 5337 5334 5332
5602 5601 5600 5599 5598 5596 5595 5594 5592 5590 5589 5587 5586 5584 5583 5581 5579 5577 5575 5574 5573 5572 5569 5567 5564 5562 5559 5557 5554 5551 5548 5545 5542 5539 5535 5531 5528 5525 5522 5518 5514 5510 5507 5504 5501 5497 5493 5489 5485 5481 5476 5471 5466 5462 5458 5454 5449 5444 5440 5435 5431 5426 5422 5417 5413 5408 5404 5399 5394 5389 5385 5380 5376 5370 5365 5360 5356 5351 5348 5344 5341 5338 5335 5332 5330
5594 5592 5591 5590 5589 5588 5586 5585 5583 5582 5580 5579 5578 5576 5575 5573 5571 5569 5567 5566 5565 5563 5561 5558 5555 5553 5550 5547 5544 5541 5539 5535 5532 5529 5525 5521 5518 5515 5512 5508 5505 5501 5498 5495 5492 5487 5483 5479 5476 5472 5467 5462 5457 5453 5449 5446 5441 5437 5433 5428 5424 5420 5416 5412 5407 5403 5398 5394 5389 5384 5380 5375 5371 5367 5361 5356 5352 5348 5344 5341 5338 5336 5333 5330 5327
5585 5584 5583 5581 5580 5579 5578 5577 5575 5574 5573 5571 5570 5568 5566 5565 5563 5561 5559 5558 5556 5554 5551 5548 5545 5543 5540 5537 5534 5531 5529 5525 5522 5519 5516 5512 5509 5506 5502 5499 5496 5492 5489 5486 5482 5478 5474 5470 5466 5462 5458 5453 5449 5445 5442 5438 5434 5430 5426 5422 5418 5414 5410 5406 5402 5398 5393 5389 5385 5380 5375 5371 5367 5362 5358 5353 5348 5344 5341 5338 5336 5333 5330 5328 5325
5576 5575 5574 5573 5572 5571 5570 5569 5567 5566 5564 5563 5561 5560 5558 5556 5554 5552 5550 5548 5546 5544 5542 5538 5535 5532 5530 5527 5524 5521 5518 5515 5512 5510 5507 5503 5500 5496 5493 5489 5486 5483 5480 5476 5473 5468 5464 5460 5457 5453 5449 5445 5441 5437 5434 5430 5426 5422 5419 5415 5412 5408 5405 5401 5397 5393 5388 5384 5380 5376 5371 5367 5362 5358 5353 5349 5345 5341 5337 5335 5332 5330 5328 5325 5323
5567 5567 5566 5564 5563 5562 5561 5560 5558 5556 5555 5553 5551 5550 5548 5546 5544 5542 5540 5538 5536 5534 5531 5528 5525 5522 5519 5517 5513 5510 5508 5505 5502 5500 5497 5494 5490 5487 5484 5480 5476 5473 5470 5466 5462 5458 5455 5451 5448 5444 5441 5437 5433 5429 5426 5422 5418 5414 5411 5408 5405 5402 5398 5395 5392 5388 5384 5380 5375 5371 5367 5363 5358 5354 5349 5344 5340 5336 5334 5331 5329 5327 5325 5323 5321
5558 5557 5556 5555 5554 5553 5551 5550 5548 5547 5545 5543 5541 5540 5538 5536 5534 5532 5530 5527 5525 5523 5521 5518 5515 5512 5509 5506 5503 5500 5498 5495 5493 5490 5488 5484 5481 5478 5474 5470 5466 5462 5459 5456 5452 5448 5445 5442 5438 5435 5432 5428 5425 5421 5418 5414 5411 5407 5404 5400 5398 5395 5392 5388 5385 5382 5378 5375 5370 5366 5362 5358 5354 5349 5345 5340 5336 5332 5330 5327 5325 5323 5321 5320 5318
5549 5548 5547 5546 5544 5543 5542 5541 5539 5538 5536 5534 5532 5530 5528 5526 5524 5522 5519 5517 5514 5512 5510 5507 5504 5502 5499 5495 5492 5490 5488 5485 5483 5480 5478 5475 5471 5468 5464 5460 5456 5452 5449 5445 5442 5439 5436 5432 5429 5426 5423 5420 5417 5413 5410 5406 5403 5400 5397 5394 5390 5388 5385 5382 5379 5375 5372 5369 5365 5361 5357 5352 5349 5345 5341 5336 5332 5329 5326 5324 5322 5320 5318 5317 5315
5539 5538 5537 5537 5535 5534 5533 5532 5530 5528 5526 5524 5522 5520 5518 5516 5513 5511 5508 5506 5503 5501 5499 5496 5494 5491 5488 5484 5482 5480 5478 5475 5473 5470 5467 5464 5461 5457 5454 5450 5447 5443 5439 5436 5432 5430 5427 5423 5420 5417 5415 5412 5409 5405 5402 5398 5395 5393 5390 5387 5384 5381 5379 5376 5373 5369 5366 5363 5359 5356 5352 5347 5343 5340 5336 5332 5328 5325 5322 5320 5318 5316 5315 5313 5312
5530 5529 5528 5527 5526 5524 5523 5521 5519 5517 5515 5513 5511 5509 5507 5505 5502 5500 5497 5495 5493 5490 5488 5485 5482 5479 5476 5473 5471 5469 5467 5464 5462 5459 5456 5453 5450 5447 5444 5441 5437 5434 5430 5426 5423 5420 5418 5415 5412 5409 5406 5403 5400 5397 5394 5391 5389 5386 5383 5380 5378 5375 5373 5370 5367 5363 5360 5357 5354 5350 5347 5343 5338 5335 5331 5327 5324 5321 5318 5316 5314 5312 5311 5310 5309
5520 5519 5517 5516 5515 5514 5512 5510 5508 5506 5504 5502 5501 5498 5496 5494 5491 5489 5487 5485 5482 5480 5478 5475 5472 5468 5466 5463 5461 5459 5456 5454 5451 5448 5446 5443 5440 5437 5434 5431 5428 5424 5420 5417 5414 5411 5408 5406 5403 5400 5397 5394 5391 5389 5387 5384 5382 5380 5377 5374 5371 5369 5366 5363 5360 5357 5353 5350 5347 5344 5341 5338 5334 5330 5326 5322 5319 5316 5313 5312 5310 5308 5307 5306 5305
5509 5508 5506 5505 5504 5502 5501 5499 5497 5495 5493 5491 5489 5487 5485 5483 5481 5479 5476 5474 5471 5469 5467 5464 5461 5458 5455 5453 5451 5448 5446 5443 5440 5438 5435 5433 5430 5427 5424 5421 5418 5414 5411 5408 5405 5401 5398 5395 5393 5391 5388 5386 5384 5382 5380 5377 5375 5372 5370 5367 5365 5363 5360 5357 5354 5350 5347 5344 5341 5338 5335 5332 5329 5325 5321 5318 5314 5311 5308 5307 5305 5304 5303 5302 5301
5498 5496 5495 5493 5492 5490 5489 5487 5485 5483 5481 5480 5478 5476 5474 5472 5470 5468 5465 5463 5461 5458 5456 5453 5450 5447 5445 5442 5440 5438 5435 5432 5429 5427 5425 5422 5419 5417 5414 5411 5407 5404 5401 5398 5394 5391 5388 5385 5383 5382 5380 5378 5376 5374 5372 5370 5368 5365 5363 5360 5358 5356 5353 5350 5348 5345 5341 5338 5334 5331 5328 5326 5323 5319 5316 5313 5309 5306 5303 5301 5300 5299 5298 5297 5297
5485 5484 5482 5481 5479 5478 5477 5475 5473 5471 5469 5467 5466 5464 5462 5460 5458 5456 5454 5451 5449 5447 5444 5442 5439 5436 5434 5431 5429 5427 5424 5421 5418 5416 5414 5411 5408 5406 5403 5400 5396 5393 5390 5387 5384 5382 5379 5377 5374 5373 5371 5370 5368 5366 5364 5363 5361 5358 5356 5354 5351 5349 5346 5344 5341 5338 5336 5332 5329 5326 5322 5320 5317 5314 5310 5307 5304 5301 5298 5296 5295 5294 5293 5292 5291
5473 5471 5470 5469 5467 5466 5464 5462 5461 5459 5457 5455 5454 5452 5450 5448 5446 5444 5441 5439 5437 5434 5432 5430 5427 5425 5423 5420 5418 5415 5413 5410 5407 5405 5402 5399 5397 5394 5391 5388 5385 5382 5380 5378 5375 5373 5371 5368 5366 5364 5362 5361 5359 5358 5356 5354 5353 5350 5349 5347 5344 5342 5339 5337 5334 5332 5329 5326 5324 5320 5317 5313 5311 5308 5305 5301 5298 5295 5293 5291 5289 5288 5287 5286 5286
5460 5459 5457 5456 5455 5453 5452 5450 5448 5446 5445 5443 5441 5439 5437 5435 5433 5431 5429 5427 5425 5422 5420 5418 5415 5413 5410 5408 5406 5403 5401 5398 5396 5393 5390 5387 5385 5382 5379 5376 5374 5372 5370 5369 5366 5364 5363 5360 5358 5356 5353 5352 5350 5349 5347 5346 5344 5342 5341 5339 5337 5335 5332 5329 5327 5325 5322 5319 5317 5314 5311 5308 5304 5301 5298 5295 5292 5289 5287 5285 5283 5282 5281 5280 5280
5447 5446 5444 5443 5442 5440 5438 5437 5435 5434 5432 5430 5428 5427 5425 5423 5421 5419 5417 5415 5412 5410 5408 5406 5403 5400 5398 5396 5394 5391 5388 5386 5384 5381 5378 5375 5373 5370 5368 5366 5364 5362 5360 5359 5357 5356 5354 5352 5349 5347 5345 5343 5342 5340 5338 5337 5335 5334 5332 5331 5329 5327 5324 5322 5319 5317 5314 5312 5309 5307 5304 5301 5298 5294 5291 5288 5286 5283 5281 5279 5277 5276 5275 5274 5274
5434 5433 5431 5430 5428 5427 5425 5423 5422 5420 5418 5417 5415 5414 5412 5410 5409 5407 5404 5402 5400 5398 5396 5393 5391 5389 5387 5384 5382 5379 5376 5374 5372 5369 5366 5363 5361 5359 5357 5355 5353 5351 5350 5349 5348 5346 5344 5342 5341 5339 5337 5335 5334 5332 5330 5328 5327 5325 5323 5322 5320 5318 5316 5314 5311 5309 5307 5304 5302 5299 5297 5294 5291 5287 5284 5282 5279 5276 5274 5272 5271 5270 5269 5268 5268
5421 5420 5418 5417 5415 5413 5411 5410 5408 5407 5405 5403 5402 5400 5399 5397 5395 5393 5391 5389 5387 5385 5382 5380 5378 5376 5374 5372 5369 5367 5364 5362 5360 5357 5354 5352 5350 5348 5346 5344 5342 5341 5339 5338 5337 5336 5335 5333 5332 5330 5329 5327 5326 5324 5322 5321 5319 5317 5315 5313 5311 5309 5307 5306 5303 5301 5299 5296 5294 5291 5289 5286 5283 5280 5277 5274 5272 5269 5267 5266 5264 5263 5262 5261 5261
5407 5406 5404 5403 5402 5400 5398 5397 5395 5393 5392 5390 5389 5387 5385 5384 5382 5380 5378 5375 5373 5371 5369 5367 5365 5363 5361 5359 5356 5354 5352 5350 5347 5345 5342 5340 5338 5336 5334 5332 5331 5330 5329 5328 5327 5326 5325 5324 5323 5322 5321 5319 5318 5316 5314 5313 5311 5309 5307 5305 5303 5301 5299 5297 5295 5293 5291 5288 5286 5283 5281 5278 5275 5271 5268 5266 5264 5262 5260 5259 5258 5256 5255 5255 5254